{"data":{"norad_id":36095,"epoch":"2026-09-20T01:46:34.730112Z","epoch_age_seconds":62476,"freshness":"FRESH","line1":"1 36095U 09063A   26263.07401308 -.00000052  00000+0  16718-4 0  9997","line2":"2 36095  67.1500  22.1330 0005655 296.7177  63.3328 13.97057641858385","mean_motion":13.97057641,"eccentricity":0.0005655,"inclination_deg":67.15,"raan_deg":22.133,"arg_perigee_deg":296.7177,"mean_anomaly_deg":63.3328,"bstar":1.6718e-5,"rev_number":85838,"period_min":103.07377145651,"perigee_km":899.88384317989,"apogee_km":908.11994226756,"semimajor_km":7282.1388927237,"source":"CELESTRAK","updated_at":"2026-09-20T09:00:13.742174Z"}}